Regional Weather Roundup
Issued by NWS Upton, NY

Current Version | Previous Version | Text Only | Print | Product List | Glossary On
Versions: 1 2 3 4 5 6 7 8 9 10 11 12 13 14 15 16 17 18 19 20 21 22 23 24 25 26 27 28 29 30 31 32 33 34 35 36 37 38 39 40 41 42 43 44 45 46 47 48 49 50
331
ASUS41 KOKX 222108
RWROKX

REGIONAL WEATHER ROUNDUP
NATIONAL WEATHER SERVICE NEW YORK NY
400 PM EST WED FEB 22 2017

NOTE: "FAIR" INDICATES FEW OR NO CLOUDS BELOW 12,000 FEET WITH NO
SIGNIFICANT WEATHER AND/OR OBSTRUCTIONS TO VISIBILITY.

NYZ071-072-176-178-NJZ106-104-222200-
NEW YORK CITY METRO AREA

CITY           SKY/WX    TMP DP  RH WIND       PRES   REMARKS
Central Park   CLOUDY    57  38  48 W6        29.93S
Wall St Helipt NOT AVBL
LaGuardia APRT PTSUNNY   57  39  51 S8        29.90S
Kennedy INTL   PTSUNNY   50  43  77 S5        29.93F
Breezy Point     N/A     45 N/A N/A E2          N/A
Newark/Liberty PTSUNNY   57  39  51 VRB3      29.90F
Teterboro      CLOUDY    57  39  51 SW5       29.90F
$$

NYZ177-179-078>081-222200-
LONG ISLAND NEW YORK

CITY           SKY/WX    TMP DP  RH WIND       PRES   REMARKS
Jones Beach      N/A     46 N/A N/A S5          N/A
Matinecock PT  NOT AVBL
Farmingdale    MOSUNNY   51  41  68 SW7       29.92S
MacArthur/ISP  PTSUNNY   50  41  71 SW7       29.91F
Shirley        CLOUDY    48  42  80 W6        29.93R
Westhampton    PTSUNNY   47  41  80 SW8       29.94S
Southampton      N/A     45  43  93 SW3       29.90S
Bridgehampton  NOT AVBL
East Hampton     N/A     48  40  73 SW7       29.92R
Montauk          N/A     46  38  73 NW5       29.94R
$$

NYZ052-065-067-222200-
HUDSON VALLEY

CITY           SKY/WX    TMP DP  RH WIND       PRES   REMARKS
White Plains   MOSUNNY   52  38  58 E3        29.89F
Newburgh       MOSUNNY   52  41  66 VRB6      29.91S
Montgomery     MOSUNNY   53  41  63 S6        29.89R
Poughkeepsie   MOSUNNY   53  38  56 CALM      29.89S
Albany         PTSUNNY   57  36  45 VRB6      29.87F
$$

NJZ001-105-106-008-010-013-015-019>022-104-222200-
NEW JERSEY

CITY           SKY/WX    TMP DP  RH WIND       PRES   REMARKS
Newark/Liberty PTSUNNY   57  39  51 VRB3      29.90F
Teterboro      CLOUDY    57  39  51 SW5       29.90F
Caldwell       MOSUNNY   59  38  45 CALM      29.90F
Somerville     SUNNY     60  39  45 S5        29.88F
Linden         NOT AVBL
Sussex         CLOUDY    52  42  69 E6        29.90R
Andover          N/A     58  38  47 SW7       29.89S
Trenton        CLOUDY    58  42  55 S7        29.90F
Millville      MOSUNNY   59  49  69 VRB5      29.91F
Atlantic City  MOSUNNY   59  48  67 S6        29.92S
Wrightstown    MOSUNNY   62  44  52 W6        29.88S
Toms River     MOSUNNY   63  47  55 SW9       29.91F
Belmar         MOSUNNY   54  44  69 SE7       29.92F
$$

PAZ047>061-062-071-222200-
EASTERN PENNSYLVANIA

CITY           SKY/WX    TMP DP  RH WIND       PRES   REMARKS
Philadelphia   PTSUNNY   58  42  55 SW6       29.92S
Allentown      CLOUDY    61  40  45 SW6       29.89F
Scranton       PTSUNNY   57  40  52 SW5       29.88S
$$

CTZ002-004>006-009-010-012-RIZ004-006-007-MAZ004-011-015-222200-
SOUTHERN NEW ENGLAND
 IN CT

CITY           SKY/WX    TMP DP  RH WIND       PRES   REMARKS
Bradley INTL   PTSUNNY   54  36  50 SE3       29.89F
Hartford       PTSUNNY   55  37  50 SE6       29.88F
Danbury        CLOUDY    50  38  63 W6        29.91S
Wtrbury/Oxford PTSUNNY   52  36  54 CALM      29.91F
Bridgeport     MOSUNNY   51  38  60 SW3       29.91F
Meriden        MOSUNNY   51  36  56 S8        29.90F
New Haven      PTSUNNY   48  38  68 CALM      29.92R
Chester          N/A     48  37  66 CALM      29.91S
Groton         MOSUNNY   46  38  73 SW9       29.91S
Wilimantic     MOSUNNY   59  38  45 SW7       29.89F

 IN RI

CITY           SKY/WX    TMP DP  RH WIND       PRES   REMARKS
Providence     CLOUDY    50  38  63 S7        29.88F
Block Island   MOSUNNY   45  39  79 W8        29.93S
Westerly       MOSUNNY   48  36  63 SW10      29.92S
 IN MA

CITY           SKY/WX    TMP DP  RH WIND       PRES   REMARKS
Boston         MOSUNNY   47  38  71 E8        29.89S
Worcester      SUNNY     56  37  49 W7        29.87S
Westfield      SUNNY     52  36  54 S7        29.87F
Provincetown   CLOUDY    51  39  63 S5        29.91
Nantucket      MOSUNNY   44  39  82 SW8       29.92F
$$

ANZ330-335-338-340-345-350-353-355-222200-
COASTAL MARINE OBSERVATIONS


STATION/POSITION TIME  SKY/WX   TEMP    WIND        PRES    VSBY  WAVE
                                AIR SEA DIR/SP/G                  HT/PER
                 (UTC)          (F)     (DEG/KT/KT) (MB)    (MI)  (FT/S)
NY HARB ENTRANCE 1950            44 43  170/  6/  8 1013.3          2/ 7
20 S FIRE ISLAND 2050            45 44  200/ 10/ 12 1013.0          3/ 8
GREAT SOUTH BAY  NOT AVBL
23 SSW MONTAUK P 2050            46 45              1013.7          3/11
15 E BARNEGAT LI 2030               42                N/A           3/ 8
HUDSON CANYON    2050               50              1013.9          3/ 9
KINGS POINT      2048            51 40              1012.6
EXECUTION ROCKS  NOT AVBL
CENTRAL LI SOUND NOT AVBL
EASTERN LI SOUND NOT AVBL
ROBBINS REEF     2048            48     180/ 11/ 12 1013.0
$$


>>>>>>>>>>>>>>>>>>>>>>>>>>>> KEY <<<<<<<<<<<<<<<<<<<<<<<<<<<
>                                                          <
>     SKY/WX - Sky Condition/Present Weather               <
>     TMP    - Temperature in Fahrenheit                   <
>     DP     - Dew Point in Fahrenheit                     <
>     RH     - Relative Humidity in Percent                <
>     WIND   - Direction (from) and Speed in MPH           <
>     PRES   - Mean Sea Level Pressure (inches of Hg)      <
>     WCI    - Wind Chill Index                            <
>     VSB    - VISIBILITY IN MILES                         <
>     HX     - HEAT INDEX                                  <
>     TC     - TEMPERATURE IN CELSIUS                      <
>     VRB    - VARIABLE WIND DIRECTION                     <
>                                                          <
>>>>>>>>>>>>>>>>>>>>>>>>>>>> KEY <<<<<<<<<<<<<<<<<<<<<<<<<<<




USA.gov is the U.S. government's official web portal to all federal, state and local government web resources and services.